Theta_e
308 309 308 309 308 306 297 287 284 298 297 279 278 271 275 286 286 287 286 287 285 284 284 286 286 285 287 293 294 289 291 286 281 284 289 291 293 289 290 283 277 280 279 281
308 309 309 307 306 302 292 286 287 297 292 271 276 281 278 283 282 285 284 284 286 286 284 281 286 287 292 292 293 290 291 285 278 281 286 287 287 289 290 289 285 281 277 280
309 308 307 306 305 302 292 283 281 286 288 283 276 273 272 275 285 285 286 283 286 284 283 286 283 284 291 293 293 296 295 286 284 279 281 286 283 287 289 288 282 281 282 284
308 307 305 305 305 301 291 281 279 277 279 280 273 276 277 275 274 284 286 283 283 283 278 282 282 285 286 290 292 295 292 281 285 286 284 285 286 286 287 286 287 283 285 285
306 306 307 306 302 300 287 280 277 276 268 278 278 274 272 277 274 281 280 280 283 284 279 282 279 284 284 283 287 288 292 284 284 282 284 283 282 286 287 287 288 287 287 286
306 306 306 306 302 296 286 285 286 280 276 275 273 274 274 278 281 281 283 283 282 281 283 286 287 289 288 287 284 284 283 285 284 280 283 282 280 283 285 287 289 288 284 289
306 306 305 304 302 297 289 287 284 276 270 274 275 279 280 280 280 279 281 283 282 285 289 289 289 288 287 287 286 287 282 281 282 281 282 275 284 290 288 286 288 290 290 291
304 304 304 303 303 301 290 288 283 276 267 273 278 279 280 281 281 281 282 284 285 287 285 277 270 270 279 283 285 285 286 283 280 280 278 280 281 283 286 285 285 290 289 291
304 304 304 304 303 300 291 289 289 283 276 275 281 282 282 280 280 278 281 285 286 287 281 273 269 264 267 268 277 286 286 286 282 282 278 274 283 285 287 288 280 288 291 291
304 304 304 304 304 303 293 289 289 287 282 280 284 280 277 284 282 281 281 280 282 286 275 268 263 264 275 270 267 273 282 283 280 281 278 276 282 283 288 279 281 288 289 291
303 303 304 304 304 303 293 288 289 285 277 280 284 283 284 283 283 276 279 283 281 278 273 269 267 263 273 277 277 277 279 280 278 281 278 276 283 283 282 286 285 286 286 288
301 301 301 302 303 304 296 287 293 294 282 281 287 288 291 289 287 284 285 279 280 281 272 269 267 266 271 271 274 282 276 282 281 283 281 288 286 287 286 285 286 285 284 285
299 300 300 300 302 304 298 288 289 291 285 280 285 281 285 291 291 291 283 286 288 285 288 282 280 276 276 267 274 279 282 285 282 281 283 285 287 285 285 285 286 286 285 283
299 299 301 302 303 303 297 289 287 286 284 279 276 287 284 288 290 289 289 288 289 288 286 283 282 279 284 281 280 278 279 281 281 279 283 283 284 284 285 285 283 283 281 283
297 298 302 302 302 301 292 291 291 291 283 272 275 281 281 287 287 286 287 286 285 284 283 281 280 279 281 277 279 277 280 281 279 280 282 284 284 283 284 283 282 282 280 280
296 296 299 302 300 298 294 285 290 292 291 284 277 277 282 282 281 282 283 285 284 283 282 281 283 280 278 273 273 277 281 281 284 285 284 283 285 277 275 278 277 275 278 278
296 295 295 295 298 294 286 281 283 292 291 284 278 270 278 280 280 282 282 284 282 282 281 280 280 276 279 274 275 277 279 281 279 278 280 280 277 281 278 276 273 271 269 268
293 295 294 293 293 291 287 286 289 291 286 284 276 273 276 275 279 277 282 280 280 280 280 279 278 277 278 277 278 273 276 275 275 277 274 277 272 270 270 268 267 266 268 266
292 293 292 283 278 278 283 289 286 284 285 280 278 276 268 270 275 279 279 281 275 276 272 273 274 269 273 276 273 277 276 274 273 262 261 261 265 266 265 264 263 265 266 261
291 282 274 268 270 285 284 273 268 277 280 280 273 271 270 272 273 276 276 277 274 272 267 269 265 266 271 275 276 276 274 265 261 269 277 264 265 262 262 264 264 266 262 261
275 268 269 274 282 273 264 265 266 266 266 264 270 271 269 269 268 269 273 266 265 261 264 265 262 263 269 266 264 260 259 258 261 259 257 258 260 261 261 263 262 262 263 263
274 273 272 269 264 262 264 258 257 257 264 258 263 263 271 265 266 265 265 264 264 262 258 260 260 267 268 261 262 259 255 254 254 251 256 255 256 257 258 260 261 262 261 260
268 266 266 265 261 260 260 260 260 257 257 257 257 260 262 262 265 262 261 262 263 258 257 261 266 267 265 264 255 255 250 248 250 253 250 250 254 253 253 257 254 256 257 255
266 264 263 265 259 261 262 262 263 263 260 257 258 255 260 257 261 261 261 258 257 255 255 262 265 266 263 258 253 253 256 253 256 257 252 252 251 254 250 250 252 255 256 254
266 265 263 263 264 257 254 251 257 257 258 261 261 260 265 258 260 260 259 256 255 260 263 266 266 264 260 260 256 257 258 255 254 251 252 253 252 250 252 250 250 255 255 256
266 263 265 260 261 259 254 253 256 258 263 261 262 258 260 261 260 257 259 257 260 267 267 267 260 261 260 260 261 261 258 257 256 253 253 254 254 254 255 251 250 252 254 255
263 265 261 265 262 266 262 258 259 263 264 263 265 268 266 259 253 254 258 260 268 270 264 259 260 262 265 263 261 259 257 256 255 254 254 255 254 254 253 255 254 251 251 252
Wind_Speed
23 23 21 28 29 25 10 5 6 1 1 5 2 3 2 2 3 2 2 3 3 4 4 5 10 15 9 12 11 18 8 4 5 7 1 3 16 10 15 7 5 5 3 15
26 27 31 30 26 11 4 5 4 5 5 4 2 2 1 1 3 2 1 1 1 3 2 5 8 7 5 5 16 10 11 6 3 2 4 4 6 11 9 6 3 15 6 13
28 31 30 27 14 9 7 5 4 3 3 2 7 3 3 1 2 1 3 2 1 2 2 7 5 9 10 6 11 14 11 5 16 17 10 8 9 14 17 14 7 11 18 18
31 30 26 15 6 5 7 4 2 2 4 2 2 3 4 2 1 1 3 0 5 3 0 4 6 3 3 9 11 10 7 8 11 21 6 9 15 16 16 18 26 13 23 23
23 21 14 12 10 12 7 5 5 2 1 2 4 4 4 6 4 6 5 4 6 7 7 7 4 4 3 5 5 8 4 7 8 12 9 7 6 16 23 28 26 19 23 24
21 20 19 17 12 11 4 0 2 6 2 1 5 5 6 4 3 5 5 6 4 9 8 9 9 9 7 5 5 4 2 5 7 15 8 6 9 22 20 20 23 25 22 28
21 20 19 18 17 11 4 2 4 5 3 3 5 2 4 5 6 7 1 4 7 5 1 4 3 5 9 9 13 7 7 5 7 9 7 16 16 16 17 20 15 19 17 22
17 17 17 17 16 13 5 2 4 4 1 3 2 3 3 5 5 8 10 12 9 1 4 4 6 6 2 10 17 17 15 4 6 9 14 4 5 8 20 18 26 18 19 27
13 12 12 11 10 10 5 3 3 4 5 5 4 2 2 3 3 5 5 5 5 6 3 3 4 5 5 6 5 15 16 13 11 8 12 12 19 8 5 7 8 17 24 24
11 10 11 11 8 8 5 1 1 4 2 3 5 4 4 2 3 3 2 6 4 4 2 2 3 5 5 3 5 6 6 6 15 13 5 7 9 6 11 11 13 10 12 20
10 9 9 8 6 5 4 0 1 4 3 4 7 6 4 3 3 3 4 0 2 2 3 4 5 2 5 2 5 6 7 8 6 8 10 13 2 5 13 8 2 5 8 10
7 7 7 6 5 2 5 2 1 2 3 6 4 6 6 8 5 1 2 3 3 3 2 1 2 3 2 4 9 3 6 6 8 6 5 11 8 7 4 2 6 5 6 7
7 7 7 6 8 7 7 3 3 3 1 4 2 5 4 3 5 4 3 2 2 3 1 3 4 5 3 3 10 8 5 4 4 5 9 13 13 7 6 8 9 8 8 6
9 10 11 11 9 9 9 4 3 4 2 2 7 2 3 3 6 6 5 3 2 2 2 3 4 3 4 3 3 3 6 1 7 4 7 5 8 7 6 8 4 4 2 5
8 11 14 4 2 11 7 3 2 1 5 4 5 2 2 2 5 5 7 7 4 2 3 4 4 3 1 3 1 9 6 8 4 6 2 6 9 3 4 7 8 10 7 7
5 10 14 10 11 10 3 2 1 1 1 1 4 2 3 2 1 1 3 3 2 2 2 3 4 4 2 3 6 6 6 7 9 14 4 8 10 2 3 6 6 4 8 8
8 4 7 11 9 2 2 4 3 3 1 1 4 5 2 1 1 2 2 3 3 2 3 4 3 4 2 3 12 5 8 8 5 2 3 7 1 7 3 2 1 3 2 1
7 8 4 0 4 5 1 2 3 0 1 1 3 5 1 0 2 2 2 2 2 4 3 2 3 3 2 7 12 6 5 4 6 8 4 7 1 2 4 2 3 2 4 3
9 5 5 5 4 2 2 2 3 1 2 3 3 3 5 2 1 0 1 1 3 1 3 3 1 2 9 13 7 11 7 7 6 1 1 4 5 6 4 2 2 4 5 3
2 5 5 4 3 3 3 7 4 2 1 2 4 1 2 2 1 2 1 1 2 3 4 2 2 7 11 16 15 12 7 4 4 4 14 4 6 4 4 8 5 7 5 5
4 2 2 3 5 4 5 1 3 2 3 2 1 3 3 3 3 4 1 2 1 0 5 3 4 6 8 5 7 4 4 3 6 2 2 3 3 4 4 7 7 6 7 7
5 4 2 3 5 4 4 3 3 2 7 3 4 3 1 0 2 3 2 2 2 6 1 3 5 9 7 4 5 5 4 4 4 3 5 5 6 4 5 7 7 7 4 3
4 6 4 5 3 3 7 7 5 3 5 4 2 1 2 2 2 3 3 2 6 1 2 7 8 5 6 6 3 6 4 4 5 6 3 4 6 3 3 5 5 4 4 2
3 4 5 7 4 7 7 6 5 4 4 4 3 2 4 2 3 2 3 3 3 2 2 9 4 5 5 4 2 1 5 6 7 8 5 5 5 5 4 3 2 2 2 2
2 4 7 8 4 1 2 1 2 3 2 4 3 4 2 1 2 2 3 3 6 7 7 5 5 5 4 4 3 5 6 6 6 3 5 6 5 3 4 3 2 3 3 4
3 3 2 2 3 3 1 2 3 4 3 2 3 4 3 5 3 3 10 5 10 5 5 4 2 4 4 5 5 6 5 5 5 4 4 3 4 4 4 1 1 2 4 6
5 6 1 3 1 4 2 3 4 4 4 4 3 6 11 2 2 5 6 8 5 3 4 2 3 4 7 5 6 6 5 5 5 4 5 3 1 3 1 4 3 2 2 2
Wind_Direction
131 135 138 130 126 128 64 84 96 346 2 67 39 130 186 269 134 244 162 152 131 23 36 243 199 217 204 196 165 198 191 141 176 190 84 313 218 216 197 192 217 238 253 253
117 120 122 120 121 95 104 75 65 350 67 115 84 108 340 267 181 211 124 92 306 134 62 356 327 323 238 178 188 194 176 207 120 359 308 341 211 217 211 204 94 234 215 262
112 117 117 115 131 131 84 94 100 42 53 95 132 142 294 332 243 105 121 95 137 43 171 163 254 320 314 285 205 199 183 206 217 221 217 142 206 209 214 208 209 223 227 248
103 103 105 123 90 86 91 43 103 195 159 230 111 106 151 135 238 178 160 155 202 134 272 217 224 172 288 300 19 231 184 212 220 239 202 196 202 202 207 207 224 203 241 240
100 118 107 88 81 83 78 116 131 11 127 97 109 342 274 187 224 159 233 204 149 199 213 215 195 160 178 260 36 347 271 239 214 247 210 194 201 207 207 214 224 234 251 261
70 65 57 50 54 72 92 136 67 99 292 91 98 220 214 229 79 294 223 182 207 219 233 237 245 229 197 206 171 157 285 285 205 238 184 182 230 218 205 217 220 218 232 245
64 63 62 57 53 72 113 153 108 90 222 133 203 231 193 241 228 232 214 183 220 214 324 269 209 253 222 216 237 199 188 263 271 227 157 219 231 215 202 209 221 218 245 254
64 67 68 66 65 67 81 105 97 109 121 178 318 263 257 311 301 283 259 238 210 6 339 329 11 343 305 229 239 221 205 185 261 238 213 291 291 206 192 191 231 219 222 244
60 66 67 71 87 89 79 39 88 93 112 253 141 170 236 275 287 303 275 314 171 159 164 101 207 229 212 274 274 212 216 210 232 240 202 203 227 194 143 97 243 214 214 238
45 48 61 57 59 65 92 75 88 95 134 242 168 194 186 204 257 253 309 314 33 140 132 142 196 249 190 270 215 197 193 178 244 254 226 281 256 156 125 167 228 242 181 222
48 44 27 19 30 74 80 0 349 112 153 247 188 181 174 232 232 201 254 301 322 64 151 143 233 192 247 252 231 238 194 164 220 233 236 240 116 51 168 206 169 185 188 210
33 19 357 347 334 232 118 100 244 109 114 235 219 208 205 203 204 201 243 199 178 212 102 308 50 297 269 189 266 220 254 215 171 190 222 205 203 259 240 172 213 226 169 205
360 347 328 301 296 257 154 144 152 96 353 303 300 248 263 133 168 176 222 217 189 229 348 204 229 247 131 204 249 251 253 218 239 113 238 240 233 219 188 185 219 228 230 193
359 342 323 299 278 233 142 137 163 101 139 267 276 250 227 171 169 191 228 314 290 261 200 246 237 234 198 223 252 230 218 266 205 260 279 356 296 253 229 235 265 287 236 218
11 360 354 341 57 113 91 105 176 186 136 211 271 215 264 112 155 222 237 237 236 242 235 227 245 250 183 247 329 248 171 213 194 241 190 198 249 243 197 212 220 233 228 251
339 2 8 53 117 125 95 352 170 164 194 239 286 248 171 103 72 237 253 221 207 242 239 238 258 264 151 228 246 261 200 202 203 246 211 208 268 200 224 225 223 217 218 221
325 337 1 16 6 25 125 190 203 141 135 254 288 297 61 105 171 190 195 180 217 229 239 230 231 265 245 225 259 178 209 237 271 4 48 311 203 266 331 237 49 84 59 321
310 315 250 17 68 75 355 15 58 315 153 213 265 266 211 346 176 213 182 194 193 220 247 269 233 314 264 257 249 258 252 285 294 265 224 255 181 291 258 11 66 276 243 250
309 288 90 64 51 155 185 324 40 50 212 245 215 221 252 343 335 45 191 229 241 255 228 245 210 249 230 237 262 268 237 200 243 189 280 293 234 247 250 206 231 229 250 252
86 55 55 332 243 276 37 8 32 33 310 262 224 46 231 97 122 212 255 230 233 242 246 326 214 255 271 262 247 262 273 232 150 347 296 333 286 255 266 241 241 225 213 189
46 66 195 234 331 57 33 36 103 315 301 225 243 191 180 310 136 206 220 208 268 315 261 151 274 273 247 304 294 302 317 270 246 249 304 286 234 259 270 282 246 232 222 210
168 161 79 33 45 38 92 230 327 155 225 265 159 207 188 324 49 99 308 173 57 244 312 68 266 250 257 288 282 299 312 320 264 220 251 261 251 248 258 262 243 222 220 176
37 52 51 74 300 34 166 212 261 266 195 199 171 188 152 16 56 70 84 149 228 43 76 230 236 268 287 274 268 291 287 297 298 285 263 262 269 276 226 275 268 189 163 149
100 127 267 165 247 245 197 190 193 224 112 141 123 92 144 189 79 146 133 239 62 342 285 237 256 256 275 285 231 172 269 237 247 258 264 263 271 279 295 305 271 153 163 107
172 105 233 220 226 172 196 157 16 294 131 108 76 43 73 348 118 182 95 6 247 211 230 228 239 260 280 290 265 258 265 256 248 226 243 250 252 264 287 310 310 131 143 167
139 237 278 245 46 279 323 172 213 192 140 58 54 121 70 249 161 118 220 150 220 234 218 232 266 287 274 270 265 263 236 227 230 230 233 238 223 235 251 283 286 214 173 185
200 248 212 169 245 217 186 147 207 158 114 183 176 162 217 94 34 260 199 216 232 213 251 244 220 261 285 284 284 277 248 217 211 206 210 220 172 154 158 233 221 221 223 184